VE3KSR Weather Reports


Display with metric or nautical units.
time (UTC)temp
F
wind
direction
speed
MPH
gust
MPH
rain 1hr
in
rain 24hr
in
rain mn
in
humidity
%
barometer
mb
20190818104933 59 170 11.0 15.0 4.86 0.00 0.00 100 1013.8
20190818104433 59 177 10.0 14.0 4.86 0.00 0.00 100 1013.9
20190818103933 59 174 10.0 11.0 4.86 0.00 0.00 100 1013.9
20190818103433 59 176 9.0 10.0 4.86 0.00 0.00 100 1013.6
20190818102933 59 177 9.0 10.0 4.86 0.00 0.00 100 1013.6
20190818102433 59 173 8.0 10.0 4.86 0.00 0.00 100 1013.5
20190818101933 59 177 8.0 10.0 4.86 0.00 0.00 100 1013.3
20190818101433 60 156 7.0 8.0 4.86 0.00 0.00 100 1013.3
20190818100933 60 138 7.0 7.0 4.86 0.00 0.00 100 1013.0
20190818100433 60 146 7.0 7.0 4.86 0.00 0.00 100 1013.1
20190818095933 59 143 5.0 6.0 4.86 0.00 0.00 100 1013.2
20190818095433 59 152 7.0 8.0 4.86 0.00 0.00 100 1013.0
20190818094933 59 149 7.0 7.0 4.86 0.00 0.00 100 1013.1
20190818094433 59 148 6.0 8.0 4.86 0.00 0.00 100 1012.9
20190818093933 59 134 6.0 7.0 4.86 0.00 0.00 100 1013.0
20190818093433 59 152 7.0 8.0 4.86 0.00 0.00 100 1013.0
20190818092933 59 143 6.0 7.0 4.86 0.00 0.00 100 1013.1
20190818092433 59 155 5.0 6.0 4.86 0.00 0.00 100 1013.0
20190818091933 59 0 0.0 0.0 4.86 0.00 0.00 100 1013.5
20190818091433 60 0 0.0 0.0 4.86 0.00 0.00 100 1013.3
20190818090933 60 0 0.0 0.0 4.86 0.00 0.00 100 1013.1
20190818090433 60 0 0.0 0.0 4.86 0.00 0.00 100 1013.3
20190818085933 61 0 0.0 0.0 4.86 0.00 0.00 100 1013.6
20190818085434 61 0 0.0 0.0 4.86 0.00 0.00 100 1013.9
20190818084933 61 0 0.0 0.0 4.86 0.00 0.00 100 1014.0
20190818084433 61 246 1.0 3.0 4.86 0.00 0.00 100 1014.0
20190818082933 62 203 10.0 14.0 4.86 0.00 0.00 98 1013.8
20190818082433 62 160 10.0 13.0 4.86 0.00 0.00 99 1014.4
20190818081933 62 162 14.0 16.0 4.86 0.00 0.00 100 1014.4
20190818081436 62 173 11.0 13.0 4.86 0.00 0.00 98 1014.1
20190818080935 62 200 8.0 10.0 4.86 0.00 0.00 100 1014.0
20190818080433 62 207 9.0 11.0 4.86 0.00 0.00 100 1014.0
20190818075933 62 170 8.0 11.0 4.86 0.00 0.00 98 1013.9
20190818075433 62 190 8.0 12.0 4.86 0.00 0.00 98 1013.7
20190818074933 62 173 9.0 14.0 4.86 0.00 0.00 98 1013.5
20190818074433 62 165 11.0 17.0 4.86 0.00 0.00 98 1013.5
20190818073933 62 167 10.0 16.0 4.86 0.00 0.00 97 1013.6
20190818073433 63 176 13.0 19.0 4.86 0.00 0.00 96 1013.8
20190818072933 63 170 12.0 17.0 4.86 0.00 0.00 94 1014.0
20190818072433 63 173 10.0 12.0 4.86 0.00 0.00 92 1013.9
20190818071933 63 138 8.0 9.0 4.86 0.00 0.00 92 1013.8
20190818071433 64 114 7.0 8.0 4.86 0.00 0.00 91 1013.7
20190818070933 64 120 6.0 8.0 4.86 0.00 0.00 91 1013.6
20190818070434 64 138 6.0 7.0 4.86 0.00 0.00 90 1013.6
20190818065933 64 138 5.0 6.0 4.86 0.00 0.00 90 1013.7
20190818065433 64 111 7.0 8.0 4.86 0.00 0.00 89 1013.8
20190818064934 64 104 7.0 7.0 4.86 0.00 0.00 88 1013.8
20190818064433 65 103 6.0 7.0 4.86 0.00 0.00 86 1013.9
20190818063933 65 94 6.0 7.0 4.86 0.00 0.00 85 1013.8
20190818063433 65 86 5.0 6.0 4.86 0.00 0.00 86 1013.6
20190818062934 65 84 6.0 7.0 4.86 0.00 0.00 86 1013.5
20190818062433 65 0 0.0 0.0 4.86 0.00 0.00 86 1013.6
20190818061933 65 0 0.0 0.0 4.86 0.00 0.00 85 1013.5
20190818061434 66 0 0.0 0.0 4.86 0.00 0.00 85 1013.5
20190818060933 66 0 0.0 0.0 4.86 0.00 0.00 85 1013.6
20190818060433 66 0 0.0 0.0 4.86 0.00 0.00 85 1013.5
20190818055933 66 0 0.0 0.0 4.86 0.00 0.00 85 1013.5
20190818055433 66 0 0.0 0.0 4.86 0.00 0.00 85 1013.4
20190818054933 66 0 0.0 0.0 4.86 0.00 0.00 85 1013.4
20190818054433 66 0 0.0 0.0 4.86 0.00 0.00 85 1013.4
20190818053933 66 0 0.0 0.0 4.86 0.00 0.00 85 1013.4
20190818053434 66 0 0.0 0.0 4.86 0.00 0.00 85 1013.5
20190818052933 66 0 0.0 0.0 4.86 0.00 0.00 84 1013.5
20190818052433 67 0 0.0 0.0 4.86 0.00 0.00 83 1013.7
20190818051936 67 0 0.0 0.0 4.86 0.00 0.00 83 1013.7
20190818051433 67 0 0.0 0.0 4.86 0.00 0.00 83 1013.7
20190818050933 66 0 0.0 0.0 4.86 0.00 0.00 83 1013.8
20190818050434 67 0 0.0 0.0 4.86 0.00 0.00 83 1013.8
20190818045934 66 0 0.0 0.0 4.86 0.00 0.00 83 1013.7
20190818045435 66 0 0.0 0.0 4.86 0.00 0.00 83 1013.7
20190818044933 66 0 0.0 0.0 4.86 0.00 0.00 83 1013.7
20190818044433 66 0 0.0 0.0 4.86 0.00 0.01 83 1013.7
20190818043934 66 0 0.0 0.0 4.86 0.00 0.01 83 1013.6
20190818043434 67 0 0.0 0.0 4.86 0.00 0.01 84 1013.6
20190818042934 67 0 0.0 0.0 4.86 0.00 0.01 84 1013.5
20190818042434 67 0 0.0 0.0 4.86 0.00 0.01 84 1013.6
20190818041934 66 0 0.0 0.0 4.86 0.00 0.01 85 1013.5
20190818041434 67 0 0.0 0.0 4.86 0.00 0.01 85 1013.5
20190818040934 67 0 0.0 0.0 4.86 0.00 0.01 85 1013.5
20190818040434 67 0 0.0 0.0 4.86 0.00 0.01 84 1013.5
20190818035934 67 0 0.0 0.0 4.86 0.00 0.01 84 1013.5
20190818035436 67 0 0.0 0.0 4.86 0.00 0.01 84 1013.5
20190818034934 67 0 0.0 0.0 4.86 0.00 0.01 84 1013.5
20190818034434 67 0 0.0 0.0 4.86 0.00 0.01 85 1013.5
20190818033934 66 208 1.0 3.0 4.86 0.00 0.01 85 1013.5
20190818033434 66 226 5.0 6.0 4.86 0.00 0.01 85 1013.6
20190818032935 66 225 6.0 6.0 4.86 0.00 0.01 84 1013.3
20190818032434 65 208 6.0 6.0 4.86 0.00 0.01 83 1013.5
20190818031936 65 218 7.0 8.0 4.86 0.00 0.01 83 1013.5
20190818031434 65 204 8.0 9.0 4.86 0.00 0.01 84 1013.6
20190818030934 64 211 8.0 9.0 4.86 0.00 0.01 83 1013.5
20190818030434 65 183 7.0 8.0 4.86 0.00 0.01 81 1013.5
20190818025934 66 170 6.0 8.0 4.86 0.00 0.01 78 1013.4
20190818025434 66 0 0.0 0.0 4.86 0.00 0.01 78 1013.2
20190818024936 66 277 1.0 3.0 4.86 0.00 0.01 78 1013.2
20190818024434 66 278 4.0 5.0 4.86 0.00 0.01 78 1013.1
20190818023934 66 269 5.0 5.0 4.86 0.00 0.01 78 1013.2
20190818023434 66 280 5.0 6.0 4.86 0.00 0.01 79 1013.0
20190818022934 65 270 5.0 6.0 4.86 0.00 0.01 79 1013.2
20190818022434 65 274 5.0 6.0 4.86 0.00 0.01 80 1013.0
20190818021934 65 225 5.0 5.0 4.86 0.00 0.01 80 1012.9
20190818021434 65 228 5.0 6.0 4.86 0.00 0.01 79 1012.9
20190818020934 66 218 4.0 6.0 4.86 0.00 0.01 79 1012.7
20190818020434 66 0 0.0 0.0 4.86 0.00 0.01 78 1012.7
20190818015936 66 0 0.0 0.0 4.86 0.00 0.01 77 1012.6
20190818015435 66 0 0.0 0.0 4.86 0.00 0.01 77 1012.6
20190818014934 66 0 0.0 0.0 4.86 0.00 0.01 77 1012.5
20190818014434 67 0 0.0 0.0 4.86 0.00 0.01 77 1012.5
20190818013934 67 0 0.0 0.0 4.86 0.00 0.01 76 1012.4
20190818013434 67 0 0.0 0.0 4.86 0.00 0.01 76 1012.2
20190818012934 67 338 3.0 3.0 4.86 0.00 0.01 76 1012.0
20190818012434 66 349 3.0 3.0 4.86 0.00 0.01 76 1012.0
20190818011934 66 323 5.0 5.0 4.86 0.00 0.01 76 1011.9
20190818011434 66 329 5.0 6.0 4.86 0.00 0.01 76 1011.9
20190818010934 66 329 5.0 6.0 4.86 0.00 0.01 76 1011.9
20190818010434 66 321 5.0 6.0 4.86 0.00 0.01 76 1011.8
20190818005934 67 294 5.0 6.0 4.86 0.00 0.01 76 1011.8
20190818005434 67 309 5.0 6.0 4.86 0.00 0.01 71 1011.8
20190818004936 66 323 6.0 7.0 4.86 0.00 0.01 76 1011.5
20190818004436 67 333 6.0 7.0 4.86 0.00 0.01 75 1011.7
20190818003934 67 330 6.0 7.0 4.86 0.00 0.01 76 1011.7
20190818003434 66 332 6.0 6.0 4.86 0.00 0.01 76 1011.7
20190818002936 67 333 6.0 6.0 4.86 0.00 0.01 75 1011.8
20190818002434 67 319 6.0 7.0 4.86 0.00 0.01 75 1011.7
20190818001934 67 326 5.0 6.0 4.86 0.00 0.01 74 1011.7
20190818001434 67 326 5.0 6.0 4.86 0.00 0.01 74 1011.8
20190818000934 68 307 5.0 6.0 4.86 0.00 0.01 73 1011.7
20190818000434 68 340 4.0 6.0 4.86 0.00 0.01 72 1011.8
20190817235934 68 309 4.0 7.0 4.86 0.00 0.01 72 1011.9
20190817235434 68 285 3.0 4.0 4.86 0.00 0.01 71 1011.8
20190817234936 69 280 3.0 5.0 4.86 0.00 0.01 70 1012.0
20190817234435 69 270 4.0 6.0 4.86 0.00 0.01 70 1011.7
20190817233934 70 276 5.0 10.0 4.86 0.00 0.01 69 1011.7
20190817233434 70 277 6.0 8.0 4.86 0.00 0.01 68 1011.7
20190817232934 70 288 6.0 8.0 4.86 0.00 0.01 68 1011.7
20190817232434 71 281 9.0 15.0 4.86 0.00 0.01 67 1011.7
20190817231934 71 307 8.0 11.0 4.86 0.00 0.01 67 1011.7
20190817231434 71 288 9.0 11.0 4.86 0.00 0.01 67 1011.8
20190817230934 70 281 9.0 13.0 4.86 0.00 0.01 67 1011.9
20190817230435 70 277 9.0 15.0 4.86 0.00 0.01 67 1011.7
20190817225934 70 273 9.0 13.0 4.86 0.00 0.01 67 1011.7
20190817225434 70 297 9.0 11.0 4.86 0.00 0.01 67 1011.4
20190817224937 70 298 9.0 14.0 4.86 0.00 0.01 66 1011.7
20190817224434 70 307 8.0 10.0 4.86 0.00 0.01 66 1011.7
20190817223935 70 302 8.0 14.0 4.86 0.00 0.01 66 1011.7
20190817223435 70 263 11.0 17.0 4.86 0.00 0.01 66 1011.9
20190817222934 70 271 11.0 14.0 4.86 0.00 0.01 66 1011.8
20190817222434 70 274 12.0 17.0 4.86 0.00 0.01 66 1011.9
20190817221934 70 281 12.0 18.0 4.86 0.00 0.01 65 1011.9
20190817221435 70 291 10.0 15.0 4.86 0.00 0.01 65 1012.0
20190817220934 71 297 13.0 18.0 4.86 0.00 0.01 66 1012.1
20190817220434 71 281 13.0 17.0 4.86 0.00 0.01 65 1012.1
20190817215935 71 269 10.0 16.0 4.86 0.00 0.01 65 1012.1
20190817215434 71 263 12.0 18.0 4.86 0.00 0.01 66 1012.1
20190817214935 71 257 16.0 20.0 4.86 0.00 0.01 66 1012.1
20190817214435 71 264 15.0 20.0 4.86 0.00 0.01 65 1012.2
20190817213937 71 260 15.0 21.0 4.86 0.00 0.01 66 1012.2
20190817213435 70 273 17.0 25.0 4.86 0.00 0.01 65 1012.1
20190817212934 70 269 13.0 19.0 4.86 0.00 0.01 66 1012.2
20190817212435 70 270 12.0 16.0 4.86 0.00 0.01 68 1012.2
20190817211935 70 257 13.0 20.0 4.86 0.00 0.01 68 1012.3
20190817211436 70 264 15.0 19.0 4.86 0.00 0.01 67 1012.3
20190817210934 70 281 15.0 17.0 4.86 0.00 0.01 68 1012.3
20190817210434 70 255 14.0 19.0 4.86 0.00 0.01 68 1012.3
20190817205935 69 263 14.0 18.0 4.86 0.00 0.01 68 1012.3
20190817205434 70 297 14.0 18.0 4.86 0.00 0.01 68 1012.2
20190817204938 70 267 15.0 22.0 4.86 0.00 0.01 68 1012.2
20190817204434 70 266 16.0 22.0 4.86 0.00 0.01 67 1012.3
20190817203934 70 210 15.0 20.0 4.86 0.00 0.01 67 1012.4
20190817203435 69 273 17.0 23.0 4.86 0.00 0.01 66 1012.4
20190817202934 70 262 18.0 25.0 4.86 0.00 0.01 66 1012.4
20190817202435 70 270 14.0 20.0 4.86 0.00 0.01 66 1012.5
20190817201935 70 253 14.0 20.0 4.86 0.00 0.01 67 1012.6
20190817201435 70 264 16.0 21.0 4.86 0.00 0.01 67 1012.8
20190817200935 70 285 15.0 19.0 4.86 0.00 0.01 66 1012.8
20190817200435 66 266 13.0 19.0 4.86 0.00 0.01 66 1012.9
20190817195936 65 269 14.0 21.0 4.86 0.00 0.01 67 1012.8
20190817195435 67 270 17.0 22.0 4.86 0.00 0.01 66 1013.0
20190817194935 67 270 15.0 20.0 4.86 0.00 0.01 64 1013.0
20190817194436 67 271 21.0 27.0 4.86 0.00 0.01 65 1013.0
20190817193935 68 253 18.0 22.0 4.86 0.00 0.01 66 1013.0
20190817193435 70 264 18.0 28.0 4.86 0.00 0.01 64 1013.1
20190817191935 68 271 16.0 22.0 4.86 0.00 0.01 66 1013.3
20190817191435 69 259 17.0 22.0 4.86 0.00 0.01 66 1013.2
20190817190935 70 266 14.0 22.0 4.86 0.00 0.01 67 1013.3
20190817190435 69 259 15.0 24.0 4.86 0.00 0.01 66 1013.3
20190817185935 67 287 13.0 17.0 4.86 0.00 0.01 67 1013.4
20190817185435 67 276 18.0 22.0 4.86 0.00 0.01 67 1013.5
20190817184935 68 270 16.0 24.0 4.86 0.00 0.01 67 1013.5
20190817184435 68 270 18.0 23.0 4.86 0.00 0.01 67 1013.5
20190817183935 69 262 14.0 20.0 4.86 0.00 0.01 68 1013.5
20190817183435 69 273 15.0 23.0 4.86 0.00 0.01 69 1013.5
20190817182935 70 263 12.0 19.0 4.86 0.00 0.01 68 1013.3
20190817182436 70 271 14.0 21.0 4.86 0.00 0.01 70 1013.4
20190817181935 70 259 14.0 18.0 4.86 0.00 0.01 71 1013.4
20190817181435 70 260 16.0 21.0 4.86 0.00 0.01 70 1013.4
20190817180935 70 274 17.0 24.0 4.86 0.00 0.01 70 1013.6
20190817180435 69 270 12.0 20.0 4.86 0.00 0.01 74 1013.4
20190817175935 69 260 15.0 20.0 4.86 0.00 0.01 73 1013.5
20190817175435 69 270 15.0 19.0 4.86 0.00 0.01 73 1013.5
20190817174935 70 270 15.0 20.0 4.86 0.00 0.01 72 1013.5
20190817174435 70 264 15.0 22.0 4.86 0.00 0.01 75 1013.6
20190817173935 71 281 14.0 21.0 4.86 0.00 0.01 72 1013.5
20190817173435 71 276 15.0 21.0 4.86 0.00 0.01 73 1013.7
20190817172936 70 277 17.0 23.0 4.86 0.00 0.01 72 1013.7
20190817172436 70 276 14.0 20.0 4.86 0.00 0.01 72 1013.7
20190817171935 70 257 16.0 22.0 4.86 0.00 0.01 71 1013.6
20190817171435 70 277 14.0 20.0 4.86 0.00 0.01 73 1013.6
20190817170935 69 269 19.0 23.0 4.86 0.00 0.01 74 1013.8
20190817170435 69 264 17.0 22.0 4.86 0.00 0.01 73 1013.9
20190817165935 69 274 16.0 21.0 4.86 0.00 0.01 76 1013.8
20190817165435 69 271 15.0 19.0 4.86 0.00 0.01 79 1013.7
20190817164935 69 266 16.0 21.0 4.86 0.00 0.01 77 1013.9
20190817164435 69 274 16.0 21.0 4.86 0.00 0.01 78 1013.7
20190817163935 69 260 18.0 24.0 4.86 0.00 0.01 76 1013.6
20190817163436 69 260 14.0 19.0 4.86 0.00 0.01 79 1013.7
20190817162935 69 225 14.0 21.0 4.86 0.00 0.01 85 1013.6
20190817162435 68 259 17.0 23.0 4.86 0.00 0.01 85 1013.6
20190817161935 68 277 18.0 23.0 4.86 0.00 0.01 85 1013.5
20190817161435 69 277 14.0 17.0 4.86 0.00 0.01 86 1013.5
20190817160935 69 240 9.0 13.0 4.86 0.00 0.01 91 1013.5
20190817160435 69 281 9.0 11.0 4.86 0.00 0.01 92 1013.4
20190817155935 68 269 11.0 15.0 4.86 0.00 0.01 92 1013.5
20190817155435 67 274 10.0 12.0 4.86 0.00 0.01 94 1013.5
20190817154936 67 280 11.0 15.0 4.86 0.00 0.01 94 1013.6
20190817154435 67 269 12.0 17.0 4.86 0.00 0.01 95 1013.6
20190817153935 67 267 14.0 18.0 4.86 0.00 0.01 96 1013.8
20190817153435 66 257 15.0 20.0 4.86 0.00 0.01 96 1013.9
20190817152936 66 232 12.0 16.0 4.86 0.00 0.01 99 1014.1
20190817152436 66 229 12.0 18.0 4.86 0.00 0.01 100 1013.9
20190817151935 65 245 14.0 23.0 4.86 0.00 0.01 100 1014.1
20190817151435 66 257 12.0 18.0 4.86 0.00 0.01 100 1014.0
20190817150936 65 224 12.0 15.0 4.86 0.00 0.01 100 1013.9
20190817150436 65 236 11.0 15.0 4.86 0.00 0.01 100 1014.1
20190817145935 65 260 11.0 14.0 4.86 0.00 0.01 100 1014.0
20190817145435 65 291 9.0 13.0 4.86 0.00 0.01 100 1014.0
20190817144935 63 231 11.0 16.0 4.86 0.00 0.01 100 1014.2
20190817144435 63 222 10.0 14.0 4.86 0.00 0.01 100 1014.2
20190817143936 63 224 11.0 17.0 4.86 0.00 0.01 100 1014.4
20190817143435 63 225 11.0 14.0 4.86 0.00 0.01 100 1014.5
20190817142935 63 255 10.0 14.0 4.86 0.00 0.01 100 1014.7
20190817142436 62 214 11.0 15.0 4.86 0.00 0.01 100 1014.5
20190817141936 62 225 8.0 11.0 4.86 0.00 0.01 100 1014.8
20190817141435 61 225 10.0 12.0 4.86 0.00 0.01 100 1014.8
20190817140935 61 280 10.0 12.0 4.86 0.00 0.01 100 1015.0
20190817140436 61 219 10.0 12.0 4.86 0.00 0.01 100 1015.2
20190817135935 60 221 10.0 14.0 4.86 0.00 0.01 100 1015.1
20190817135435 60 221 11.0 14.0 4.86 0.00 0.01 100 1015.0
20190817134935 60 198 10.0 13.0 4.86 0.00 0.01 100 1014.9
20190817134435 59 210 10.0 14.0 4.86 0.00 0.01 100 1014.9
20190817133935 61 198 9.0 13.0 4.86 0.00 0.01 100 1015.1
20190817133435 61 214 9.0 12.0 4.86 0.00 0.01 100 1014.9
20190817132936 61 212 8.0 11.0 4.86 0.00 0.01 100 1015.0
20190817132437 60 148 8.0 13.0 4.86 0.00 0.01 100 1014.7
20190817131935 60 146 11.0 14.0 4.86 0.00 0.01 100 1014.7
20190817131436 60 173 8.0 11.0 4.86 0.00 0.01 100 1014.8
20190817130936 60 179 8.0 11.0 4.86 0.00 0.01 100 1014.8
20190817130436 59 179 8.0 11.0 4.86 0.00 0.01 100 1014.5
20190817125936 59 179 6.0 9.0 4.86 0.00 0.01 100 1014.7
20190817125435 59 174 8.0 12.0 4.86 0.00 0.01 100 1014.6
20190817124936 59 177 8.0 13.0 4.86 0.00 0.01 100 1014.4
20190817124435 59 170 10.0 14.0 4.86 0.00 0.01 100 1014.2
20190817123936 59 172 12.0 15.0 4.86 0.00 0.01 100 1014.1
20190817123435 59 176 10.0 14.0 4.86 0.00 0.01 100 1014.0
20190817122936 60 169 9.0 14.0 4.86 0.00 0.01 100 1014.1
20190817122436 60 167 10.0 14.0 4.86 0.00 0.01 100 1014.2
20190817121936 60 138 8.0 10.0 4.86 0.00 0.01 100 1014.4
20190817121436 60 174 10.0 14.0 4.86 0.00 0.01 100 1014.0
20190817120936 60 174 8.0 12.0 4.86 0.00 0.01 100 1014.0
20190817120436 60 172 11.0 16.0 4.86 0.00 0.01 100 1014.0
20190817115936 59 169 12.0 17.0 4.86 0.00 0.01 100 1013.9
20190817115436 59 176 11.0 19.0 4.86 0.00 0.01 100 1013.9
20190817114936 59 176 11.0 17.0 4.86 0.00 0.01 100 1013.7
20190817114436 59 170 13.0 18.0 4.86 0.00 0.01 100 1013.8
20190817113936 59 167 13.0 21.0 4.86 0.00 0.01 100 1013.6
20190817113436 58 167 13.0 22.0 4.86 0.00 0.01 100 1013.5
20190817112937 58 180 13.0 21.0 4.86 0.00 0.01 100 1013.5
20190817112436 58 141 10.0 16.0 4.86 0.00 0.01 100 1013.2
20190817111936 56 156 13.0 19.0 4.86 0.00 0.01 100 1012.9
20190817111436 57 143 12.0 15.0 4.86 0.00 0.01 100 1013.0
20190817110936 60 139 10.0 12.0 4.86 0.00 0.01 100 1013.3
20190817110436 60 139 8.0 10.0 4.86 0.00 0.01 100 1013.5
20190817105936 60 173 6.0 9.0 4.86 0.00 0.01 100 1013.8
20190817105436 60 183 8.0 10.0 4.86 0.00 0.01 100 1014.2